When you browse on this site, cookies collect data to enhance your experience and personalize the content and advertising you see.
Visit our Privacy Policy to learn more. By continuing to use the site, you agree to this use of cookies and data.
  • Em Portugal
  • Lista de países
  • Para 7 dias
  • Temperatura da água
  • Mapas de satélite
  • Mapa do tempo
  • Widgets de tempo
  • user-avatar
    Iniciar Sessão

    Previsão horária em Shumen

    Hoje, 11 Dezembro, Terça-feira

    Tempo Temperatura Precipitação Vento Pressão Humidade
    00:00 0°C° 0.2 mm 4 m/s 723 mmHg 88%
    01:00 0°C° 0.2 mm 4 m/s 724 mmHg 87%
    02:00 -1°C° 0.2 mm 5 m/s 724 mmHg 87%
    03:00 -1°C° 0.2 mm 5 m/s 724 mmHg 87%
    04:00 -1°C° 0.2 mm 5 m/s 724 mmHg 87%
    05:00 -1°C° 0.2 mm 5 m/s 724 mmHg 87%
    06:00 -1°C° 0.2 mm 5 m/s 725 mmHg 87%
    07:00 -1°C° 0.2 mm 5 m/s 725 mmHg 87%
    08:00 -1°C° 0.2 mm 5 m/s 725 mmHg 88%
    09:00 -1°C° 0.2 mm 5 m/s 726 mmHg 86%
    10:00 -1°C° 0.2 mm 5 m/s 726 mmHg 85%
    11:00 0°C° 0.2 mm 5 m/s 727 mmHg 84%
    12:00 0°C° 0.2 mm 5 m/s 727 mmHg 84%
    13:00 0°C° 0.2 mm 4 m/s 727 mmHg 83%
    14:00 0°C° 0.2 mm 4 m/s 727 mmHg 83%
    15:00 0°C° 0.2 mm 4 m/s 727 mmHg 83%
    16:00 0°C° 0.2 mm 3 m/s 728 mmHg 83%
    17:00 0°C° 0.2 mm 3 m/s 728 mmHg 84%
    18:00 0°C° 0.1 mm 3 m/s 728 mmHg 83%
    19:00 0°C° 0.1 mm 3 m/s 728 mmHg 83%
    20:00 -1°C° 0.1 mm 3 m/s 728 mmHg 82%
    21:00 -1°C° 0 mm 3 m/s 728 mmHg 82%
    22:00 -1°C° 0 mm 3 m/s 729 mmHg 82%
    23:00 -2°C° 0 mm 3 m/s 729 mmHg 82%

    Amanhã, 12 Dezembro, Quarta-feira

    Tempo Temperatura Precipitação Vento Pressão Humidade
    00:00 -2°C° 0 mm 3 m/s 729 mmHg 82%
    01:00 -2°C° 0 mm 3 m/s 729 mmHg 83%
    02:00 -2°C° 0 mm 3 m/s 729 mmHg 83%
    03:00 -2°C° 0 mm 3 m/s 729 mmHg 85%
    04:00 -2°C° 0 mm 3 m/s 729 mmHg 86%
    05:00 -2°C° 0 mm 3 m/s 729 mmHg 88%
    06:00 -2°C° 0.2 mm 3 m/s 729 mmHg 89%
    07:00 -2°C° 0.2 mm 3 m/s 729 mmHg 89%
    08:00 -2°C° 0.2 mm 3 m/s 729 mmHg 90%
    09:00 -1°C° 0.1 mm 3 m/s 730 mmHg 88%
    10:00 -2°C° 0.1 mm 4 m/s 730 mmHg 86%
    11:00 -1°C° 0.1 mm 4 m/s 730 mmHg 84%
    12:00 -1°C° 0 mm 4 m/s 730 mmHg 83%
    13:00 -1°C° 0 mm 5 m/s 730 mmHg 81%
    14:00 0°C° 0 mm 5 m/s 730 mmHg 79%
    15:00 -1°C° 0 mm 4 m/s 730 mmHg 82%
    16:00 -1°C° 0 mm 3 m/s 730 mmHg 84%
    17:00 -1°C° 0 mm 3 m/s 730 mmHg 87%
    18:00 -1°C° 0 mm 3 m/s 730 mmHg 86%
    19:00 -1°C° 0 mm 3 m/s 731 mmHg 85%
    20:00 -1°C° 0 mm 3 m/s 731 mmHg 84%
    21:00 -2°C° 0 mm 3 m/s 731 mmHg 82%
    22:00 -2°C° 0 mm 3 m/s 731 mmHg 81%
    23:00 -2°C° 0 mm 3 m/s 731 mmHg 79%

    Depois de amanhã, 13 Dezembro, Quinta-feira

    Tempo Temperatura Precipitação Vento Pressão Humidade
    00:00 -2°C° 0 mm 3 m/s 731 mmHg 79%
    01:00 -2°C° 0 mm 3 m/s 731 mmHg 78%
    02:00 -2°C° 0 mm 3 m/s 731 mmHg 77%
    03:00 -2°C° 0 mm 3 m/s 731 mmHg 77%
    04:00 -2°C° 0 mm 3 m/s 731 mmHg 77%
    05:00 -2°C° 0 mm 3 m/s 731 mmHg 77%
    06:00 -2°C° 0 mm 3 m/s 731 mmHg 77%
    07:00 -2°C° 0 mm 3 m/s 732 mmHg 77%
    08:00 -4°C° 0 mm 3 m/s 732 mmHg 77%
    09:00 -1°C° 0 mm 3 m/s 732 mmHg 72%
    10:00 0°C° 0 mm 3 m/s 732 mmHg 67%
    11:00 +1°C° 0 mm 4 m/s 732 mmHg 63%
    12:00 +2°C° 0 mm 3 m/s 732 mmHg 61%
    13:00 +2°C° 0 mm 3 m/s 732 mmHg 60%
    14:00 +3°C° 0 mm 3 m/s 731 mmHg 59%
    15:00 +3°C° 0 mm 2 m/s 731 mmHg 62%
    16:00 +1°C° 0 mm 2 m/s 731 mmHg 65%
    17:00 +1°C° 0 mm 1 m/s 731 mmHg 69%
    18:00 +1°C° 0 mm 1 m/s 731 mmHg 69%
    19:00 +1°C° 0 mm 1 m/s 731 mmHg 70%
    20:00 +1°C° 0 mm 1 m/s 731 mmHg 70%
    21:00 +1°C° 0.1 mm 1 m/s 731 mmHg 72%
    22:00 +1°C° 0.1 mm 1 m/s 730 mmHg 74%
    23:00 +2°C° 0.1 mm 1 m/s 730 mmHg 76%

    14 Dezembro, Sexta-feira

    Tempo Temperatura Precipitação Vento Pressão Humidade
    00:00 +2°C° 0.5 mm 1 m/s 730 mmHg 78%
    01:00 +2°C° 0.5 mm 1 m/s 730 mmHg 80%
    02:00 +1°C° 0.5 mm 0 m/s 730 mmHg 82%
    03:00 +2°C° 0.7 mm 1 m/s 730 mmHg 83%
    04:00 +2°C° 0.7 mm 1 m/s 730 mmHg 85%
    05:00 +1°C° 0.7 mm 1 m/s 730 mmHg 86%
    06:00 +1°C° 0.3 mm 1 m/s 731 mmHg 87%
    07:00 +1°C° 0.3 mm 1 m/s 731 mmHg 87%
    08:00 +1°C° 0.3 mm 1 m/s 731 mmHg 87%
    09:00 -1°C° 0 mm 2 m/s 732 mmHg 87%
    10:00 +1°C° 0 mm 2 m/s 732 mmHg 87%
    11:00 +1°C° 0 mm 2 m/s 732 mmHg 87%
    12:00 +1°C° 0 mm 2 m/s 733 mmHg 86%
    13:00 +1°C° 0 mm 2 m/s 733 mmHg 86%
    14:00 +1°C° 0 mm 2 m/s 733 mmHg 85%
    15:00 +1°C° 0 mm 2 m/s 733 mmHg 87%
    16:00 +1°C° 0 mm 1 m/s 733 mmHg 88%
    17:00 0°C° 0 mm 1 m/s 734 mmHg 90%
    18:00 -1°C° 0 mm 1 m/s 734 mmHg 90%
    19:00 -1°C° 0 mm 1 m/s 735 mmHg 90%
    20:00 -1°C° 0 mm 1 m/s 735 mmHg 90%
    21:00 -1°C° 0 mm 1 m/s 735 mmHg 89%
    22:00 -1°C° 0 mm 1 m/s 736 mmHg 88%
    23:00 -3°C° 0 mm 0 m/s 736 mmHg 87%

    15 Dezembro, Sábado

    Tempo Temperatura Precipitação Vento Pressão Humidade
    00:00 -1°C° 0 mm 1 m/s 736 mmHg 87%
    01:00 -1°C° 0 mm 1 m/s 736 mmHg 86%
    02:00 -1°C° 0 mm 1 m/s 736 mmHg 85%
    03:00 -1°C° 0 mm 1 m/s 736 mmHg 85%
    04:00 -1°C° 0 mm 1 m/s 736 mmHg 84%
    05:00 -1°C° 0 mm 1 m/s 736 mmHg 83%
    06:00 -1°C° 0 mm 1 m/s 736 mmHg 83%
    07:00 -1°C° 0 mm 1 m/s 736 mmHg 82%
    08:00 -3°C° 0 mm 2 m/s 737 mmHg 82%
    09:00 -2°C° 0.1 mm 2 m/s 737 mmHg 82%
    10:00 -1°C° 0.1 mm 2 m/s 737 mmHg 83%
    11:00 +1°C° 0.1 mm 2 m/s 737 mmHg 83%
    12:00 +1°C° 0.4 mm 2 m/s 737 mmHg 86%
    13:00 +1°C° 0.4 mm 2 m/s 736 mmHg 89%
    14:00 0°C° 0.4 mm 3 m/s 736 mmHg 92%
    15:00 0°C° 0.6 mm 3 m/s 736 mmHg 93%
    16:00 0°C° 0.6 mm 3 m/s 736 mmHg 94%
    17:00 0°C° 0.6 mm 3 m/s 736 mmHg 95%
    18:00 0°C° 0.6 mm 3 m/s 736 mmHg 95%
    19:00 0°C° 0.6 mm 3 m/s 736 mmHg 95%
    20:00 -1°C° 0.6 mm 4 m/s 736 mmHg 96%
    21:00 0°C° 0.5 mm 4 m/s 736 mmHg 96%
    22:00 0°C° 0.5 mm 4 m/s 736 mmHg 96%
    23:00 0°C° 0.5 mm 4 m/s 735 mmHg 96%

    16 Dezembro, Domingo

    Tempo Temperatura Precipitação Vento Pressão Humidade
    00:00 0°C° 0.4 mm 4 m/s 735 mmHg 96%
    01:00 0°C° 0.4 mm 4 m/s 735 mmHg 97%
    02:00 0°C° 0.4 mm 4 m/s 735 mmHg 97%
    03:00 0°C° 0.4 mm 4 m/s 735 mmHg 97%
    04:00 0°C° 0.4 mm 4 m/s 734 mmHg 96%
    05:00 0°C° 0.4 mm 4 m/s 734 mmHg 96%
    06:00 0°C° 0.5 mm 4 m/s 734 mmHg 96%
    07:00 -1°C° 0.5 mm 4 m/s 734 mmHg 96%
    08:00 -1°C° 0.5 mm 4 m/s 734 mmHg 96%
    09:00 -1°C° 0.7 mm 4 m/s 734 mmHg 96%
    10:00 -1°C° 0.7 mm 4 m/s 734 mmHg 96%
    11:00 -1°C° 0.7 mm 4 m/s 735 mmHg 95%
    12:00 -1°C° 0.9 mm 4 m/s 734 mmHg 95%
    13:00 -2°C° 0.9 mm 4 m/s 734 mmHg 95%
    14:00 -2°C° 0.9 mm 4 m/s 734 mmHg 95%
    15:00 -2°C° 0.7 mm 4 m/s 734 mmHg 95%
    16:00 -3°C° 0.7 mm 4 m/s 734 mmHg 95%
    17:00 -3°C° 0.7 mm 4 m/s 734 mmHg 94%
    18:00 -3°C° 0.9 mm 4 m/s 735 mmHg 95%
    19:00 -4°C° 0.9 mm 4 m/s 735 mmHg 95%
    20:00 -4°C° 0.9 mm 4 m/s 735 mmHg 95%
    21:00 -4°C° 0.6 mm 4 m/s 735 mmHg 95%
    22:00 -5°C° 0.6 mm 5 m/s 735 mmHg 95%
    23:00 -5°C° 0.6 mm 5 m/s 736 mmHg 95%
    Mostrar mais